This is the latest recevied weather packets stored in our database for station/object G4KVI. If no packets are shown the sender has not sent any weather packets the latest 10 day(s).
| Time | Temp. | Humidity | Pressure | Rain* | Wind** | Luminosity | Snow |
|---|---|---|---|---|---|---|---|
| 1777632604 | 18.89° C | 59% | 1022.1 hPa | 0 mm | - | 290 W/m² | - |
| 1777632304 | 18.33° C | 59% | 1021.9 hPa | 0 mm | - | 392 W/m² | - |
| 1777632004 | 18.33° C | 60% | 1022.1 hPa | 0 mm | - | 331 W/m² | - |
| 1777631704 | 18.33° C | 59% | 1022.2 hPa | 0 mm | - | 440 W/m² | - |
| 1777631404 | 17.78° C | 61% | 1022.1 hPa | 0 mm | - | 480 W/m² | - |
| 1777631104 | 18.33° C | 59% | 1022.1 hPa | 0 mm | - | 363 W/m² | - |
| 1777630804 | 18.33° C | 59% | 1022.2 hPa | 0 mm | - | 333 W/m² | - |
| 1777630505 | 17.78° C | 61% | 1022.2 hPa | 0 mm | - | 256 W/m² | - |
| 1777630204 | 17.78° C | 60% | 1022.2 hPa | 0 mm | - | 262 W/m² | - |
| 1777629904 | 17.78° C | 60% | 1022.1 hPa | 0 mm | - | 218 W/m² | - |
| 1777629604 | 17.78° C | 59% | 1021.9 hPa | 0 mm | - | 242 W/m² | - |
| 1777629304 | 17.78° C | 60% | 1022 hPa | 0 mm | - | 262 W/m² | - |
| 1777629004 | 17.78° C | 58% | 1021.9 hPa | 0 mm | - | 332 W/m² | - |
| 1777628704 | 18.33° C | 58% | 1021.9 hPa | 0 mm | - | 335 W/m² | - |
| 1777628404 | 17.78° C | 60% | 1021.8 hPa | 0 mm | - | 588 W/m² | - |
| 1777628104 | 17.22° C | 60% | 1021.6 hPa | 0 mm | - | 540 W/m² | - |
| 1777627804 | 16.67° C | 62% | 1021.9 hPa | 0 mm | - | 381 W/m² | - |
| 1777627504 | 16.67° C | 63% | 1021.9 hPa | 0 mm | - | 310 W/m² | - |
| 1777627204 | 16.67° C | 63% | 1021.8 hPa | 0 mm | - | 264 W/m² | - |
| 1777626904 | 16.67° C | 62% | 1022 hPa | 0 mm | - | 220 W/m² | - |
| 1777626604 | 16.67° C | 63% | 1021.6 hPa | 0 mm | - | 225 W/m² | - |
| 1777626304 | 16.67° C | 63% | 1022 hPa | 0 mm | - | 251 W/m² | - |
| 1777626004 | 16.67° C | 63% | 1021.9 hPa | 0 mm | - | 247 W/m² | - |
| 1777625704 | 16.67° C | 63% | 1021.8 hPa | 0 mm | - | 203 W/m² | - |
| 1777625404 | 16.67° C | 64% | 1021.8 hPa | 0 mm | - | 197 W/m² | - |
* Rain latest hour (hover to see other rain measurements)
** Current wind speed in m/s (hover to see current wind gust speed)